TimeCST,TemperatureF,Dew PointF,Humidity,Sea Level PressureIn,VisibilityMPH,Wind Direction,Wind SpeedMPH,Gust SpeedMPH,PrecipitationIn,Events,Conditions,WindDirDegrees,DateUTC
12:15 AM,48.2,35.6,62,30.11,10.0,SSE,3.5,-,N/A,,Clear,160,2012-11-22 06:15:00
12:35 AM,48.2,35.6,62,30.10,10.0,SSE,5.8,-,N/A,,Clear,160,2012-11-22 06:35:00
12:55 AM,50.0,35.6,58,30.09,10.0,SSE,6.9,-,N/A,,Clear,160,2012-11-22 06:55:00
1:15 AM,51.8,37.4,58,30.09,10.0,South,5.8,-,N/A,,Clear,170,2012-11-22 07:15:00
1:35 AM,51.8,37.4,58,30.09,10.0,South,4.6,-,N/A,,Clear,170,2012-11-22 07:35:00
1:55 AM,51.8,37.4,58,30.08,10.0,South,4.6,-,N/A,,Clear,170,2012-11-22 07:55:00
2:15 AM,51.8,37.4,58,30.07,10.0,SSE,4.6,-,N/A,,Clear,160,2012-11-22 08:15:00
2:36 AM,51.8,37.4,58,30.07,10.0,South,5.8,-,N/A,,Clear,170,2012-11-22 08:36:00
2:55 AM,53.6,37.4,54,30.07,10.0,South,5.8,-,N/A,,Clear,180,2012-11-22 08:55:00
3:55 AM,53.6,37.4,54,30.06,10.0,South,4.6,-,N/A,,Clear,180,2012-11-22 09:55:00
4:15 AM,51.8,37.4,58,30.06,10.0,SSE,5.8,-,N/A,,Clear,160,2012-11-22 10:15:00
4:35 AM,51.8,37.4,58,30.06,10.0,SSE,5.8,-,N/A,,Clear,160,2012-11-22 10:35:00
4:55 AM,51.8,37.4,58,30.06,10.0,South,5.8,-,N/A,,Clear,170,2012-11-22 10:55:00
5:15 AM,53.6,37.4,54,30.05,10.0,SSE,4.6,-,N/A,,Clear,160,2012-11-22 11:15:00
5:35 AM,53.6,37.4,54,30.05,10.0,South,5.8,-,N/A,,Clear,170,2012-11-22 11:35:00
6:15 AM,53.6,37.4,54,30.06,10.0,South,4.6,-,N/A,,Clear,180,2012-11-22 12:15:00
6:55 AM,55.4,37.4,51,30.06,10.0,South,6.9,-,N/A,,Clear,190,2012-11-22 12:55:00
7:15 AM,55.4,37.4,51,30.07,10.0,South,5.8,-,N/A,,Clear,180,2012-11-22 13:15:00
7:55 AM,55.4,37.4,51,30.08,10.0,South,8.1,-,N/A,,Clear,190,2012-11-22 13:55:00
8:15 AM,55.4,37.4,51,30.08,10.0,South,9.2,-,N/A,,Clear,190,2012-11-22 14:15:00
8:35 AM,57.2,39.2,51,30.08,10.0,South,9.2,-,N/A,,Clear,180,2012-11-22 14:35:00
8:55 AM,57.2,39.2,51,30.08,10.0,South,12.7,17.3,N/A,,Clear,190,2012-11-22 14:55:00
9:15 AM,59.0,39.2,48,30.08,10.0,SSW,10.4,17.3,N/A,,Clear,200,2012-11-22 15:15:00
9:55 AM,60.8,42.8,52,30.08,10.0,SSW,12.7,17.3,N/A,,Clear,200,2012-11-22 15:55:00
10:15 AM,62.6,42.8,48,30.07,10.0,SSW,11.5,17.3,N/A,,Clear,200,2012-11-22 16:15:00
10:55 AM,62.6,42.8,48,30.06,10.0,SSW,15.0,23.0,N/A,,Clear,200,2012-11-22 16:55:00
11:15 AM,64.4,42.8,45,30.05,10.0,SSW,11.5,23.0,N/A,,Clear,200,2012-11-22 17:15:00
11:55 AM,64.4,44.6,49,30.03,10.0,SSW,15.0,20.7,N/A,,Clear,200,2012-11-22 17:55:00
12:15 PM,66.2,44.6,46,30.02,10.0,SSW,12.7,19.6,N/A,,Clear,200,2012-11-22 18:15:00
12:55 PM,66.2,44.6,46,30.00,10.0,SSW,16.1,23.0,N/A,,Clear,200,2012-11-22 18:55:00
1:15 PM,66.2,44.6,46,30.00,10.0,SSW,12.7,20.7,N/A,,Clear,200,2012-11-22 19:15:00
1:55 PM,66.2,44.6,46,30.00,10.0,South,15.0,24.2,N/A,,Clear,190,2012-11-22 19:55:00
2:35 PM,66.2,44.6,46,29.98,10.0,SSW,10.4,19.6,N/A,,Scattered Clouds,200,2012-11-22 20:35:00
2:55 PM,66.2,44.6,46,29.99,10.0,SSW,12.7,20.7,N/A,,Scattered Clouds,210,2012-11-22 20:55:00
3:15 PM,64.4,44.6,49,29.98,10.0,South,16.1,20.7,N/A,,Partly Cloudy,190,2012-11-22 21:15:00
3:55 PM,64.4,44.6,49,29.99,10.0,South,11.5,18.4,N/A,,Partly Cloudy,190,2012-11-22 21:55:00
4:15 PM,64.4,44.6,49,29.99,10.0,South,11.5,-,N/A,,Partly Cloudy,190,2012-11-22 22:15:00
4:55 PM,64.4,44.6,49,29.99,10.0,South,9.2,-,N/A,,Mostly Cloudy,180,2012-11-22 22:55:00
5:15 PM,62.6,44.6,52,29.99,10.0,South,10.4,17.3,N/A,,Mostly Cloudy,180,2012-11-22 23:15:00
5:55 PM,62.6,44.6,52,30.00,10.0,South,9.2,-,N/A,,Mostly Cloudy,180,2012-11-22 23:55:00
6:15 PM,62.6,44.6,52,30.02,10.0,South,5.8,-,N/A,,Overcast,190,2012-11-23 00:15:00
6:55 PM,60.8,46.4,59,30.05,10.0,WSW,4.6,-,N/A,,Partly Cloudy,240,2012-11-23 00:55:00
7:15 PM,59.0,46.4,63,30.06,10.0,WSW,3.5,-,N/A,,Mostly Cloudy,250,2012-11-23 01:15:00
7:55 PM,60.8,46.4,59,30.07,10.0,SSW,5.8,-,N/A,,Overcast,210,2012-11-23 01:55:00
8:15 PM,60.8,46.4,59,30.07,10.0,SSW,6.9,-,N/A,,Overcast,200,2012-11-23 02:15:00
8:55 PM,60.8,46.4,59,30.07,10.0,South,8.1,-,N/A,,Mostly Cloudy,190,2012-11-23 02:55:00
9:15 PM,60.8,46.4,59,30.08,10.0,South,8.1,-,N/A,,Partly Cloudy,190,2012-11-23 03:15:00
9:36 PM,60.8,46.4,59,30.09,10.0,SSW,5.8,-,N/A,,Mostly Cloudy,200,2012-11-23 03:36:00
9:55 PM,60.8,46.4,59,30.09,10.0,South,5.8,-,N/A,,Overcast,190,2012-11-23 03:55:00
10:15 PM,60.8,46.4,59,30.10,10.0,WNW,4.6,-,N/A,,Overcast,300,2012-11-23 04:15:00
10:35 PM,60.8,46.4,59,30.13,10.0,WNW,9.2,-,N/A,,Overcast,300,2012-11-23 04:35:00
10:55 PM,60.8,48.2,63,30.14,10.0,NW,8.1,-,N/A,,Overcast,320,2012-11-23 04:55:00
11:15 PM,59.0,48.2,67,30.15,10.0,NW,6.9,-,N/A,,Overcast,320,2012-11-23 05:15:00
11:36 PM,59.0,44.6,59,30.16,9.0,North,19.6,28.8,N/A,,Overcast,360,2012-11-23 05:36:00
11:55 PM,57.2,42.8,59,30.18,10.0,North,17.3,-,N/A,,Overcast,10,2012-11-23 05:55:00